Regional Weather Roundup
Issued by NWS

Home | Current Version | Previous Version | Graphics & Text | Print | Product List | Glossary Off
Versions: 1 2 3 4 5 6 7 8 9 10 11 12 13 14 15 16 17 18 19 20 21 22 23 24 25 26 27 28 29 30 31 32 33 34 35 36 37 38 39 40 41 42 43 44 45 46 47 48 49 50

000
ASUS43 KDTX 291501
RWRMI
MICHIGAN HOURLY REGIONAL WEATHER ROUNDUP
NATIONAL WEATHER SERVICE DETROIT/PONTIAC MI
1100 AM EDT THU SEP 29 2016

NOTE: "FAIR" INDICATES FEW OR NO CLOUDS BELOW 12,000 FEET WITH NO
SIGNIFICANT WEATHER AND/OR OBSTRUCTION TO VISIBILITY.

MIZ047>049-052>055-059>063-066>070-074>076-081>083-291600-
SOUTHEAST LOWER MICHIGAN

CITY           SKY/WX    TMP DP  RH WIND       PRES   REMARKS
ADRIAN         PTSUNNY   61  59  93 SE9       30.14R
ALMA           CLOUDY    62  58  87 NE9G22    30.23R
ANN ARBOR      CLOUDY    62  60  93 NE12      30.15R
CARO           CLOUDY    62  55  78 E9G20     30.23R
DETROIT CITY   CLOUDY    58  58 100 CALM      30.17S
DETROIT        CLOUDY    59  57  93 NE9       30.17R
FLINT          HVY RAIN  59  57  93 NE14      30.20R FOG
HILLSDALE      CLOUDY    61  57  88 NE7       30.12R
HOWELL         RAIN      59  58  97 NE7       30.18R

CITY           SKY/WX    TMP DP  RH WIND       PRES   REMARKS
JACKSON        CLOUDY    60  59  96 NE9       30.15R
LAMBERTVILLE   CLOUDY    62  56  83 CALM      30.14R
LANSING        RAIN      59  57  93 NE14      30.20R FOG
LAPEER         RAIN      59  57  92 E8        30.22R
MASON          HVY RAIN  58  57  96 NE9G17    30.17R
MONROE         CLOUDY    61  58  88 CALM      30.14R
MT. CLEMENS    MOSUNNY   63  59  87 E16G23    30.15R
PONTIAC        LGT RAIN  59  57  93 NE9       30.18R FOG
PORT HURON     LGT RAIN  59  59 100 E10       30.20R
TRI CITIES     CLOUDY    63  56  78 NE18G26   30.25R
MIDLAND        CLOUDY    63  55  75 NE12G24   30.25R
TROY           DRIZZLE   61  59  93 NE6       30.19R
SAGINAW HB     CLOUDY    63  54  72 NE16G22   30.23R
$$
MIZ043>046-050>051-056>058-064>065-071>073-077>080-291600-
SOUTHWEST LOWER MICHIGAN

CITY           SKY/WX    TMP DP  RH WIND       PRES   REMARKS
BATTLE CREEK   CLOUDY    61  59  93 NE12      30.15R
BENTON HARBOR  LGT RAIN  60  57  89 NE7       30.14R
BIG RAPIDS     CLOUDY    63  57  81 E9G18     30.26R
COLDWATER      CLOUDY    61  59  93 NE12      30.13R
FREMONT        CLOUDY    61  55  81 NE12G17   30.24R
HOLLAND        RAIN      61  57  87 NE9G17    30.18R
GRAND RAPIDS   RAIN      60  57  89 NE16      30.20R FOG
IONIA          RAIN      58  56  94 NE13G18   30.20R
KALAMAZOO      CLOUDY    60  57  89 NE6       30.15R
LUDINGTON      MOSUNNY   64  56  75 NE12G23   30.28R
MARSHALL       CLOUDY    60  60  99 NE6       30.14R
MOUNT PLEASANT CLOUDY    63  56  78 NE12G21   30.25R
MUSKEGON       CLOUDY    63  56  78 NE13      30.22R
SOUTH HAVEN    RAIN      60  60  97 NE12      30.15R
$$
MIZ016>042-291600-
NORTHERN LOWER MICHIGAN

CITY           SKY/WX    TMP DP  RH WIND       PRES   REMARKS
ALPENA         PTSUNNY   65  55  70 NE18      30.37R
BEAVER ISLAND  CLOUDY    61  57  87 NE9       30.41R
BELLAIRE       PTSUNNY   64  56  74 NE15G23   30.35S
CADILLAC       MOSUNNY   64  54  68 NE12G24   30.29R
CHARLEVOIX     CLOUDY    62  56  82 E14       30.40R
FRANKFORT      SUNNY     66  55  67 NE8       30.32S
GAYLORD        CLOUDY    61  54  77 NE14G20   30.36R
GRAYLING       PTSUNNY   62  56  79 NE18G25   30.34R
HARBOR SPRINGS CLOUDY    60  56  84 E12       30.39R
HOUGHTON LAKE  PTSUNNY   62  54  74 E17G26    30.33R
MANISTEE       SUNNY     64  55  72 NE17G29   30.29R
OSCODA         CLOUDY    62  53  72 E17       30.33R
PELLSTON       CLOUDY    61  55  81 E15       30.40
ROGERS CITY    CLOUDY    61  56  83 E14G21    30.40R
TRAVERSE CITY  MOSUNNY   64  56  75 NE12      30.33R
$$
MIZ007>008-015-291600-
EASTERN UPPER MICHIGAN

CITY           SKY/WX    TMP DP  RH WIND       PRES   REMARKS
KINROSS        SUNNY     60  53  77 E13       30.43R
MACKINAC ISLAN CLOUDY    59  55  88 E13       30.42R
NEWBERRY       SUNNY     60  57  90 NE8       30.43R
S. S. MARIE    SUNNY     62  51  67 VRB6      30.43R
MUNISING         N/A     65  58  78 NE10      30.43R
$$
MIZ004>006-011>014-085-291600-
CENTRAL UPPER MICHIGAN

CITY           SKY/WX    TMP DP  RH WIND       PRES   REMARKS
MANISTIQUE     SUNNY     64  56  77 E8        30.41R
ESCANABA       SUNNY     64  57  78 N9        30.41R
MENOMINEE      SUNNY     64  55  72 NE12      30.39R
SAWYER-GWINN   PTSUNNY   59  55  88 N13       30.45R
$$
MIZ001>003-009>011-084-291600-
WESTERN UPPER MICHIGAN

CITY           SKY/WX    TMP DP  RH WIND       PRES   REMARKS
IRON MOUNTAIN  SUNNY     60  53  77 N9        30.43R
HOUGHTON       CLOUDY    57  52  83 NE5       30.49R
COPPER HARBOR    N/A     56  53  90 E8        30.49R
IRONWOOD       CLOUDY    56  52  86 NE6       30.51R
$$

ABBREVIATIONS USED IN REMARKS
   TC - TEMPERATURE IN CELSIUS
  WCI - WIND CHILL INDEX
   HX - HEAT INDEX
  VSB - VISIBILITY





USA.gov is the U.S. government's official web portal to all federal, state and local government web resources and services.